SL-4 R/B (43658 NORAD) Tracking and Keplerian Element Data

This shows tracking and keplerian element data for the satellite.

Feedback or suggestion? Click here.




ElementValue
Catalog43658
NameSL-4 R/B
Epoch Orbit307
Epoch Day318.43443616
Epoch Year2018
RAAN324.6065
Inclination67.1342
Eccentricity0.0459104
Argument of Perigee73.2914
Mean Anonmoly291.8077
Mean Motion15.03519179
Decay Rate0.0003848
L11 43658U 18082B 18318.43443616 .00038480 47506-5 21028-3 0 9993
L22 43658 67.1342 324.6065 0459104 73.2914 291.8077 15.03519179 3071

Live tracking and technical data element details for SL-4 R/B (NORAD 43658). SL-4 R/B can be tracked NOW for your location showing map with azimuth and elevation plus other details from your city location.

Track the satellite on the map from your city or location and see movement details for azimuth, elevation, latitude, longitude, range, height, and movement on the map or in text.







IsCatalogInMostPopularTable: catalog: 43658, numindb: 19
Update: records affected: 1



GetName: 43658 SL-4 R/B

Hit Count: updated at: Fri, 16 Nov 2018 03:34:58 GMT